Location: Ohmer (historical)
(38.0096°N, 122.0227°W)
Time: 13:08:37
(UTC+00:00)

NOAA 12 - Pass Details

Date: 14 February 2026
Orbit: 794 x 812 km, 98.6° (Epoch: 17 March)

Event Time Altitude Azimuth Distance (km) Brightness Sun altitude
Rises 13:29:36 0° 9° (N) 3,320 7.4 -18.2°
Reaches altitude 10° 13:31:57 10° 6° (N) 2,388 6.6 -17.7°
Maximum altitude 13:37:09 63° 287° (WNW) 896 4.0 -16.7°
Drops below altitude 10° 13:42:22 10° 207° (SSW) 2,384 6.3 -15.7°
Sets 13:44:42 0° 204° (SSW) 3,313 7.1 -15.2°
